Change the Weather History Date:

Wednesday, May 1, 2013

  Actual Average (KFLL) Record (KFLL)
Temperature  
Mean Temperature 77 °F 78 °F  
Max Temperature 84 °F 84 °F 97 °F (1971)
Min Temperature 70 °F 72 °F 56 °F (1999)
Degree Days  
Heating Degree Days 0 0  
Month to date heating degree days 0  
Since 1 July heating degree days 112  
Cooling Degree Days 12 13  
Month to date cooling degree days 13  
Year to date cooling degree days 960  
Growing Degree Days 27 (Base 50)    
Moisture  
Dew Point 70 °F    
Average Humidity 85    
Maximum Humidity 97    
Minimum Humidity 63    
Precipitation  
Precipitation 0.11 in 0.06 in 2.70 in (2013)
Month to date precipitation 0.06  
Year to date precipitation 12.90  
Snow  
Snow 0.00 in - - ()
Month to date snowfall  
Since 1 July snowfall  
Snow Depth -    
Sea Level Pressure  
Sea Level Pressure 29.98 in    
Wind  
Wind Speed 4 mph (East)    
Max Wind Speed 13 mph    
Max Gust Speed -    
Visibility 10 miles    
Events Rain    
T = Trace of Precipitation, MM = Missing Value Source: NWS Daily Summary

Daily Weather History Graph

Daily Weather History Graph

Search for Another Location

Airport or City:

Trip Planner

Search our weather history database for the weather conditions in past years. The results will help you decide how hot, cold, wet, or windy it might be!

Date:

Astronomy

May. 01, 2013 Rise Set
Actual Time 6:43 AM EDT 7:52 PM EDT
Civil Twilight 6:19 AM EDT 8:16 PM EDT
Nautical Twilight 5:50 AM EDT 8:45 PM EDT
Astronomical Twilight 5:21 AM EDT 9:15 PM EDT
Moon 12:59 AM EDT 12:20 PM EDT
Length of Visible Light 13h 57m
Length of Day
13h 08m
Waning Gibbous, 59% of the Moon is Illuminated
May 1
Waning Gibbous
May 2
Last Quarter
May 9
New
May 18
First Quarter
May 25
Full

Hourly Weather History & Observations

Time (EDT) Temp. Heat Index Dew Point Humidity Pressure Visibility Wind Dir Wind Speed Gust Speed Precip Events Conditions
12:53 AM 70.0 °F - 68.0 °F 93% 30.00 in 10.0 mi Calm Calm - N/A   Clear
1:53 AM 71.1 °F - 69.1 °F 93% 29.98 in 10.0 mi Calm Calm - N/A   Clear
2:53 AM 70.0 °F - 68.0 °F 93% 29.96 in 10.0 mi Calm Calm - N/A   Partly Cloudy
3:53 AM 70.0 °F - 68.0 °F 93% 29.95 in 10.0 mi Calm Calm - N/A   Clear
4:53 AM 70.0 °F - 68.0 °F 93% 29.96 in 10.0 mi Calm Calm - N/A   Clear
5:53 AM 72.0 °F - 69.1 °F 91% 29.95 in 10.0 mi ENE 8.1 mph - N/A   Partly Cloudy
6:16 AM 73.4 °F - 69.8 °F 88% 29.96 in 10.0 mi ESE 4.6 mph - N/A   Mostly Cloudy
6:27 AM 73.4 °F - 69.8 °F 88% 29.96 in 10.0 mi ENE 5.8 mph - N/A   Overcast
6:53 AM 72.0 °F - 69.1 °F 91% 29.98 in 10.0 mi Calm Calm - N/A   Scattered Clouds
7:53 AM 73.9 °F - 71.1 °F 91% 29.99 in 10.0 mi ENE 8.1 mph - N/A   Clear
8:53 AM 78.1 °F - 71.1 °F 79% 29.99 in 10.0 mi ESE 3.5 mph - N/A   Clear
9:53 AM 81.0 °F 84.4 °F 70.0 °F 69% 30.01 in 10.0 mi East 8.1 mph - N/A   Scattered Clouds
10:53 AM 82.0 °F 85.9 °F 70.0 °F 67% 30.01 in 10.0 mi ESE 9.2 mph - N/A   Partly Cloudy
11:53 AM 84.0 °F 89.0 °F 71.1 °F 65% 30.01 in 10.0 mi SE 6.9 mph - N/A   Partly Cloudy
12:53 PM 84.0 °F 88.4 °F 70.0 °F 63% 30.00 in 10.0 mi SE 9.2 mph - N/A   Mostly Cloudy
1:53 PM 84.9 °F 90.1 °F 71.1 °F 63% 29.97 in 10.0 mi SE 12.7 mph - N/A   Partly Cloudy
2:53 PM 81.0 °F 84.4 °F 70.0 °F 69% 29.98 in 10.0 mi SSE 11.5 mph - 0.00 in Rain Light Rain
3:53 PM 78.1 °F - 72.0 °F 81% 29.96 in 10.0 mi Calm Calm - 0.04 in Rain Light Rain
5:12 PM 71.6 °F - 69.8 °F 94% 29.96 in 10.0 mi WNW 6.9 mph - 0.06 in Rain Rain
5:53 PM 73.9 °F - 73.0 °F 97% 29.95 in 10.0 mi ESE 8.1 mph - 0.07 in   Mostly Cloudy
6:42 PM 73.4 °F - 71.6 °F 94% 29.98 in 10.0 mi North 8.1 mph - N/A   Scattered Clouds
6:53 PM 73.0 °F - 71.1 °F 93% 29.99 in 10.0 mi North 6.9 mph - N/A   Mostly Cloudy
7:53 PM 73.0 °F - 71.1 °F 93% 29.98 in 10.0 mi Calm Calm - N/A   Scattered Clouds
8:53 PM 73.0 °F - 70.0 °F 90% 29.99 in 10.0 mi East 3.5 mph - N/A   Mostly Cloudy
9:53 PM 73.0 °F - 70.0 °F 90% 29.99 in 10.0 mi Calm Calm - N/A   Partly Cloudy
10:53 PM 73.0 °F - 70.0 °F 90% 29.99 in 10.0 mi NNE 4.6 mph - N/A   Mostly Cloudy
11:53 PM 73.0 °F - 70.0 °F 90% 29.99 in 10.0 mi West 5.8 mph - N/A   Mostly Cloudy